When you browse on this site, cookies collect data to enhance your experience and personalize the content and advertising you see.
Visit our Privacy Policy to learn more. By continuing to use the site, you agree to this use of cookies and data.
  • In Czech Republic
  • List of Countries
  • For 7 days
  • Water Temperature
  • Satellite Maps
  • Weather Map
  • Weather Widgets
  • user-avatar
    Login

    Hourly Weather Osov

    Today, 22 July, Monday

    Time Temperature Precipitation Wind Pressure Humidity
    00:00 +18°C° 0 mm 1 mps 748 mmHg 90%
    01:00 +18°C° 0 mm 1 mps 748 mmHg 90%
    02:00 +17°C° 0 mm 2 mps 748 mmHg 93%
    03:00 +17°C° 0.1 mm 2 mps 748 mmHg 93%
    04:00 +17°C° 0.1 mm 2 mps 748 mmHg 93%
    05:00 +17°C° 0.1 mm 2 mps 748 mmHg 93%
    06:00 +18°C° 0 mm 2 mps 748 mmHg 89%
    07:00 +20°C° 0 mm 2 mps 747 mmHg 86%
    08:00 +21°C° 0 mm 2 mps 747 mmHg 82%
    09:00 +22°C° 0.9 mm 3 mps 747 mmHg 80%
    10:00 +24°C° 0.9 mm 3 mps 747 mmHg 77%
    11:00 +25°C° 0.9 mm 3 mps 746 mmHg 75%
    12:00 +24°C° 1.5 mm 3 mps 746 mmHg 78%
    13:00 +24°C° 1.5 mm 3 mps 746 mmHg 82%
    14:00 +22°C° 1.5 mm 3 mps 746 mmHg 86%
    15:00 +21°C° 1.2 mm 2 mps 746 mmHg 88%
    16:00 +20°C° 1.2 mm 2 mps 746 mmHg 91%
    17:00 +19°C° 1.2 mm 2 mps 745 mmHg 93%
    18:00 +19°C° 0.7 mm 2 mps 745 mmHg 94%
    19:00 +18°C° 0.7 mm 3 mps 745 mmHg 94%
    20:00 +17°C° 0.7 mm 4 mps 745 mmHg 95%
    21:00 +16°C° 0 mm 3 mps 745 mmHg 96%
    22:00 +16°C° 0 mm 3 mps 745 mmHg 96%
    23:00 +15°C° 0 mm 2 mps 744 mmHg 97%

    Tomorrow, 23 July, Tuesday

    Time Temperature Precipitation Wind Pressure Humidity
    00:00 +15°C° 0 mm 2 mps 744 mmHg 97%
    01:00 +15°C° 0 mm 2 mps 744 mmHg 97%
    02:00 +15°C° 0 mm 2 mps 744 mmHg 98%
    03:00 +14°C° 0 mm 3 mps 744 mmHg 98%
    04:00 +14°C° 0 mm 3 mps 744 mmHg 98%
    05:00 +14°C° 0 mm 4 mps 744 mmHg 98%
    06:00 +15°C° 0 mm 4 mps 743 mmHg 95%
    07:00 +17°C° 0 mm 4 mps 743 mmHg 93%
    08:00 +17°C° 0 mm 4 mps 743 mmHg 91%
    09:00 +18°C° 0.1 mm 4 mps 743 mmHg 87%
    10:00 +19°C° 0.1 mm 5 mps 743 mmHg 84%
    11:00 +19°C° 0.1 mm 5 mps 744 mmHg 81%
    12:00 +20°C° 0.3 mm 5 mps 743 mmHg 80%
    13:00 +20°C° 0.3 mm 5 mps 743 mmHg 79%
    14:00 +20°C° 0.3 mm 5 mps 743 mmHg 78%
    15:00 +20°C° 0.7 mm 4 mps 743 mmHg 81%
    16:00 +19°C° 0.7 mm 4 mps 743 mmHg 84%
    17:00 +18°C° 0.7 mm 3 mps 743 mmHg 87%
    18:00 +18°C° 0.4 mm 3 mps 743 mmHg 90%
    19:00 +17°C° 0.4 mm 3 mps 742 mmHg 93%
    20:00 +16°C° 0.4 mm 3 mps 742 mmHg 97%
    21:00 +16°C° 0.6 mm 2 mps 742 mmHg 97%
    22:00 +16°C° 0.6 mm 2 mps 743 mmHg 97%
    23:00 +16°C° 0.6 mm 2 mps 743 mmHg 98%

    Day after tomorrow, 24 July, Wednesday

    Time Temperature Precipitation Wind Pressure Humidity
    00:00 +16°C° 0.1 mm 2 mps 743 mmHg 98%
    01:00 +16°C° 0.1 mm 2 mps 743 mmHg 98%
    02:00 +16°C° 0.1 mm 2 mps 743 mmHg 98%
    03:00 +16°C° 0 mm 2 mps 743 mmHg 98%
    04:00 +15°C° 0 mm 2 mps 743 mmHg 98%
    05:00 +14°C° 0 mm 3 mps 743 mmHg 97%
    06:00 +16°C° 0 mm 3 mps 743 mmHg 95%
    07:00 +17°C° 0 mm 2 mps 743 mmHg 92%
    08:00 +18°C° 0 mm 2 mps 743 mmHg 89%
    09:00 +19°C° 0.2 mm 2 mps 744 mmHg 85%
    10:00 +20°C° 0.2 mm 2 mps 744 mmHg 81%
    11:00 +21°C° 0.2 mm 3 mps 744 mmHg 77%
    12:00 +21°C° 0.4 mm 3 mps 744 mmHg 76%
    13:00 +21°C° 0.4 mm 3 mps 744 mmHg 76%
    14:00 +22°C° 0.4 mm 3 mps 744 mmHg 75%
    15:00 +22°C° 0.5 mm 3 mps 744 mmHg 78%
    16:00 +21°C° 0.5 mm 3 mps 744 mmHg 80%
    17:00 +21°C° 0.5 mm 3 mps 744 mmHg 83%
    18:00 +20°C° 1.1 mm 3 mps 744 mmHg 87%
    19:00 +18°C° 1.1 mm 3 mps 744 mmHg 90%
    20:00 +17°C° 1.1 mm 2 mps 744 mmHg 94%
    21:00 +17°C° 0 mm 2 mps 744 mmHg 94%
    22:00 +16°C° 0 mm 2 mps 744 mmHg 94%
    23:00 +16°C° 0 mm 2 mps 745 mmHg 94%

    25 July, Thursday

    Time Temperature Precipitation Wind Pressure Humidity
    00:00 +16°C° 0.3 mm 2 mps 745 mmHg 95%
    01:00 +14°C° 0.3 mm 3 mps 745 mmHg 95%
    02:00 +14°C° 0.3 mm 3 mps 745 mmHg 96%
    03:00 +14°C° 0.2 mm 3 mps 745 mmHg 96%
    04:00 +14°C° 0.2 mm 3 mps 745 mmHg 95%
    05:00 +14°C° 0.2 mm 3 mps 745 mmHg 95%
    06:00 +15°C° 0.2 mm 4 mps 745 mmHg 92%
    07:00 +15°C° 0.2 mm 4 mps 745 mmHg 90%
    08:00 +17°C° 0.2 mm 4 mps 745 mmHg 87%
    09:00 +15°C° 0.2 mm 4 mps 745 mmHg 89%
    10:00 +15°C° 0.2 mm 5 mps 745 mmHg 90%
    11:00 +15°C° 0.2 mm 5 mps 745 mmHg 91%
    12:00 +15°C° 0.1 mm 5 mps 745 mmHg 91%
    13:00 +17°C° 0.1 mm 4 mps 745 mmHg 90%
    14:00 +17°C° 0.1 mm 4 mps 745 mmHg 90%
    15:00 +18°C° 0.2 mm 4 mps 745 mmHg 87%
    16:00 +19°C° 0.2 mm 5 mps 745 mmHg 83%
    17:00 +21°C° 0.2 mm 5 mps 745 mmHg 80%
    18:00 +20°C° 0 mm 5 mps 745 mmHg 84%
    19:00 +19°C° 0 mm 4 mps 745 mmHg 88%
    20:00 +18°C° 0 mm 4 mps 745 mmHg 92%
    21:00 +17°C° 0 mm 3 mps 745 mmHg 94%
    22:00 +17°C° 0 mm 3 mps 745 mmHg 95%
    23:00 +16°C° 0 mm 3 mps 745 mmHg 97%

    26 July, Friday

    Time Temperature Precipitation Wind Pressure Humidity
    00:00 +16°C° 0 mm 3 mps 745 mmHg 97%
    01:00 +16°C° 0 mm 3 mps 745 mmHg 98%
    02:00 +16°C° 0 mm 3 mps 745 mmHg 98%
    03:00 +17°C° 0 mm 3 mps 745 mmHg 97%
    04:00 +17°C° 0 mm 3 mps 745 mmHg 96%
    05:00 +17°C° 0 mm 3 mps 745 mmHg 95%
    06:00 +18°C° 0 mm 4 mps 745 mmHg 93%
    07:00 +18°C° 0 mm 4 mps 745 mmHg 92%
    08:00 +17°C° 0 mm 5 mps 745 mmHg 90%
    09:00 +19°C° 0.1 mm 5 mps 745 mmHg 86%
    10:00 +20°C° 0.1 mm 5 mps 745 mmHg 83%
    11:00 +22°C° 0.1 mm 5 mps 745 mmHg 79%
    12:00 +22°C° 0.8 mm 5 mps 745 mmHg 80%
    13:00 +23°C° 0.8 mm 5 mps 745 mmHg 80%
    14:00 +23°C° 0.8 mm 5 mps 744 mmHg 81%
    15:00 +25°C° 0.5 mm 5 mps 744 mmHg 80%
    16:00 +25°C° 0.5 mm 5 mps 744 mmHg 80%
    17:00 +25°C° 0.5 mm 5 mps 744 mmHg 79%
    18:00 +22°C° 0.4 mm 4 mps 744 mmHg 84%
    19:00 +21°C° 0.4 mm 3 mps 744 mmHg 88%
    20:00 +20°C° 0.4 mm 3 mps 744 mmHg 92%
    21:00 +19°C° 0.1 mm 3 mps 744 mmHg 93%
    22:00 +19°C° 0.1 mm 3 mps 744 mmHg 94%
    23:00 +18°C° 0.1 mm 2 mps 744 mmHg 95%

    27 July, Saturday

    Time Temperature Precipitation Wind Pressure Humidity
    00:00 +18°C° 0 mm 3 mps 744 mmHg 95%
    01:00 +18°C° 0 mm 3 mps 744 mmHg 96%
    02:00 +17°C° 0 mm 3 mps 744 mmHg 96%
    03:00 +17°C° 0 mm 3 mps 744 mmHg 96%
    04:00 +17°C° 0 mm 3 mps 744 mmHg 97%
    05:00 +17°C° 0 mm 2 mps 744 mmHg 97%
    06:00 +18°C° 0 mm 3 mps 744 mmHg 93%
    07:00 +20°C° 0 mm 3 mps 744 mmHg 89%
    08:00 +21°C° 0 mm 3 mps 745 mmHg 85%
    09:00 +23°C° 0 mm 4 mps 745 mmHg 78%
    10:00 +25°C° 0 mm 4 mps 745 mmHg 72%
    11:00 +27°C° 0 mm 5 mps 745 mmHg 65%
    12:00 +27°C° 0 mm 5 mps 745 mmHg 64%
    13:00 +28°C° 0 mm 5 mps 744 mmHg 63%
    14:00 +28°C° 0 mm 5 mps 744 mmHg 62%
    15:00 +27°C° 0.2 mm 5 mps 744 mmHg 66%
    16:00 +27°C° 0.2 mm 4 mps 744 mmHg 70%
    17:00 +26°C° 0.2 mm 4 mps 744 mmHg 73%
    18:00 +25°C° 0.1 mm 3 mps 744 mmHg 78%
    19:00 +24°C° 0.1 mm 3 mps 744 mmHg 83%
    20:00 +21°C° 0.1 mm 3 mps 744 mmHg 88%
    21:00 +20°C° 0 mm 3 mps 745 mmHg 89%
    22:00 +20°C° 0 mm 2 mps 745 mmHg 91%
    23:00 +19°C° 0 mm 2 mps 745 mmHg 93%
    Show more